Location: *
(42.0175°N, 9.4056°E)
Time: 12:02:25
(UTC+00:00)

Cosmos 2112 Rocket - Pass Details

Date: 25 August 2019
Orbit: 757 x 787 km, 74.1° (Epoch: 21 September)

Event Time Altitude Azimuth Distance (km) Brightness Sun altitude
Rises 19:01:11 0° 343° (NNW) 3,245 7.9 -10.1°
Reaches altitude 10° 19:03:37 10° 347° (NNW) 2,310 7.0 -10.5°
Maximum altitude 19:08:48 60° 67° (ENE) 872 4.1 -11.4°
Enters shadow 19:13:29 12° 147° (SSE) 2,119 5.8 -12.2°
